Fes-Sais, Morocco

2:51 AM WEST on March 31, 2017 (GMT +0100)
Saiss

Weather History for GMFF - October, 2012

Change the Weather History Date:

Tuesday, October 2, 2012

  Actual Average Record
Temperature  
Mean Temperature 68 °F -  
Max Temperature 83 °F 75 °F 96 °F (2006)
Min Temperature 54 °F 52 °F 46 °F (1998)
Cooling Degree Days 4    
Growing Degree Days 18 (Base 50)    
Moisture  
Dew Point 55 °F    
Average Humidity 65    
Maximum Humidity 94    
Minimum Humidity 22    
Precipitation  
Precipitation 0.00 in 0.08 in - ()
Sea Level Pressure  
Sea Level Pressure 30.14 in    
Wind  
Wind Speed 5 mph ()    
Max Wind Speed 8 mph    
Max Gust Speed -    
Visibility 6.1 miles    
Events      
Averages and records for this station are not official NWS values.
T = Trace of Precipitation, MM = Missing Value Source: Averaged Metar Reports

Daily Weather History Graph

Daily Weather History Graph

Search for Another Location

Airport or City:

Trip Planner

Search our weather history database for the weather conditions in past years. The results will help you decide how hot, cold, wet, or windy it might be!

Date:

Astronomy

Oct. 02, 2012 Rise Set
Actual Time 6:15 AM WET 6:02 PM WET
Civil Twilight 5:50 AM WET 6:27 PM WET
Nautical Twilight 5:21 AM WET 6:56 PM WET
Astronomical Twilight 4:52 AM WET 7:25 PM WET
Moon 7:15 PM WET (10/2) 8:20 AM WET (10/2)
Length of Visible Light 12h 37m
Length of Day
11h 47m
Waning Gibbous, 95% of the Moon is Illuminated
Oct 2
Waning Gibbous
Oct 8
Last Quarter
Oct 15
New
Oct 22
First Quarter
Oct 29
Full

Hourly Weather History & Observations

Time (WET) Temp. Heat Index Dew Point Humidity Pressure Visibility Wind Dir Wind Speed Gust Speed Precip Events Conditions
12:00 AM 60 °F - 56 °F 84% 30.17 in 6 mi WSW 6.9 mph - -  
12:00 AM 59.0 °F - 57.2 °F 94% 30.18 in - SSW 6.9 mph - N/A   Clear
2:00 AM 59.0 °F - 55.4 °F 88% 30.18 in - SSW 6.9 mph - N/A   Clear
3:00 AM 57 °F - 55 °F 89% 30.14 in 6 mi WNW 6.9 mph - -  
3:00 AM 57.2 °F - 55.4 °F 94% 30.15 in - South 6.9 mph - N/A   Clear
4:00 AM 57.2 °F - 53.6 °F 88% 30.15 in - SSW 5.8 mph - N/A   Clear
5:00 AM 55.4 °F - 53.6 °F 94% 30.15 in - South 5.8 mph - N/A   Clear
6:00 AM 55 °F - 52 °F 88% 30.15 in 6 mi SSW 3.5 mph - -  
6:00 AM 55.4 °F - 51.8 °F 88% 30.15 in - SSW 3.5 mph - N/A   Clear
7:00 AM 57.2 °F - 55.4 °F 94% 30.15 in - East 4.6 mph - N/A   Clear
8:00 AM 64.4 °F - 59.0 °F 83% 30.18 in - SSW 3.5 mph - N/A   Clear
9:00 AM 70 °F - 58 °F 56% 30.12 in 6 mi East 3.5 mph - -  
9:00 AM 69.8 °F - 57.2 °F 64% 30.18 in - East 3.5 mph - N/A   Clear
10:00 AM 71.6 °F - 57.2 °F 60% 30.18 in - NE 3.5 mph - N/A   Clear
11:00 AM 75.2 °F - 59.0 °F 57% 30.18 in 6.2 mi ENE 4.6 mph - N/A   Partly Cloudy
12:00 PM 76 °F - 56 °F 39% 30.08 in 6 mi NNE 6.9 mph - -   Scattered Clouds
12:00 PM 77.0 °F - 57.2 °F 50% 30.18 in 6.2 mi NNE 4.6 mph - N/A   Partly Cloudy
1:00 PM 78.8 °F - 55.4 °F 44% 30.15 in 6.2 mi NE 3.5 mph - N/A   Partly Cloudy
2:00 PM 80.6 °F 80.3 °F 53.6 °F 39% 30.12 in 6.2 mi NE 4.6 mph - N/A   Partly Cloudy
3:00 PM 82 °F - 50 °F 22% 30.02 in 6 mi NNW 4.6 mph - -   Partly Cloudy
3:00 PM 82.4 °F - 50.0 °F 32% 30.12 in 6.2 mi NNW 4.6 mph - N/A   Scattered Clouds
4:00 PM 82.4 °F 81.4 °F 53.6 °F 37% 30.12 in 6.2 mi North 5.8 mph - N/A   Scattered Clouds
5:00 PM 80.6 °F 80.3 °F 53.6 °F 39% 30.12 in 6.2 mi NW 8.1 mph - N/A   Scattered Clouds
6:00 PM 76 °F - 53 °F 35% 30.06 in 6 mi NW 4.6 mph - -   Scattered Clouds
6:00 PM 75.2 °F - 53.6 °F 47% 30.15 in 6.2 mi NW 4.6 mph - N/A   Scattered Clouds
7:00 PM 71.6 °F - 55.4 °F 57% 30.15 in - WNW 4.6 mph - N/A   Clear
8:00 PM 68.0 °F - 57.2 °F 68% 30.15 in - SW 5.8 mph - N/A   Clear
9:00 PM 66 °F - 56 °F 63% 30.12 in 6 mi SW 6.9 mph - -  
9:00 PM 66.2 °F - 57.2 °F 73% 30.18 in - SW 6.9 mph - N/A   Clear
10:00 PM 62.6 °F - 55.4 °F 77% 30.18 in - SSW 8.1 mph - N/A   Clear
11:00 PM 62.6 °F - 55.4 °F 77% 30.15 in - South 6.9 mph - N/A   Clear